H1 CPF 2 NER 2024 3 9 9 069 01 glonass107 H2 0706501 9107 32393 2024 3 9 0 0 0 2024 3 12 23 45 0 900 1 1 0 0 0 1 H9 10 0 60378 0.00000 0 4012873.310 18694085.489 16862388.505 10 0 60378 900.00000 0 2683032.451 16929128.297 18869214.241 10 0 60378 1800.00000 0 1076254.717 15100157.155 20508865.469 10 0 60378 2700.00000 0 -787353.481 13269998.215 21749406.226 10 0 60378 3600.00000 0 -2875746.428 11498081.483 22566676.092 10 0 60378 4500.00000 0 -5146032.668 9838037.371 22944763.219 10 0 60378 5400.00000 0 -7546032.638 8335555.767 22876315.344 10 0 60378 6300.00000 0 -10016236.079 7026597.189 22362682.775 10 0 60378 7200.00000 0 -12492078.027 5936030.648 21413890.643 10 0 60378 8100.00000 0 -14906438.718 5076754.625 20048441.057 10 0 60378 9000.00000 0 -17192263.289 4449337.107 18292949.128 10 0 60378 9900.00000 0 -19285191.947 4042188.644 16181620.089 10 0 60378 10800.00000 0 -21126090.860 3832259.760 13755577.896 10 0 60378 11700.00000 0 -22663378.093 3786231.921 11062058.618 10 0 60378 12600.00000 0 -23855047.521 3862150.322 8153484.710 10 0 60378 13500.00000 0 -24670306.378 4011428.111 5086438.669 10 0 60378 14400.00000 0 -25090758.455 4181135.989 1920556.552 10 0 60378 15300.00000 0 -25111084.107 4316479.164 -1282636.422 10 0 60378 16200.00000 0 -24739189.564 4363355.849 -4460924.991 10 0 60378 17100.00000 0 -23995820.376 4270888.326 -7552613.836 10 0 60378 18000.00000 0 -22913656.403 3993818.946 -10497724.537 10 0 60378 18900.00000 0 -21535927.407 3494669.491 -13239156.141 10 0 60378 19800.00000 0 -19914608.221 2745572.564 -15723786.969 10 0 60378 20700.00000 0 -18108269.794 1729697.675 -17903496.722 10 0 60378 21600.00000 0 -16179676.360 442211.904 -19736089.807 10 0 60378 22500.00000 0 -14193229.067 -1109265.450 -21186102.976 10 0 60378 23400.00000 0 -12212362.411 -2904733.748 -22225482.658 10 0 60378 24300.00000 0 -10297001.180 -4912405.122 -22834119.989 10 0 60378 25200.00000 0 -8501182.840 -7089798.025 -23000234.152 10 0 60378 26100.00000 0 -6870943.129 -9385285.847 -22720597.315 10 0 60378 27000.00000 0 -5442551.582 -11740037.598 -22000597.249 10 0 60378 27900.00000 0 -4241169.233 -14090271.507 -20854136.420 10 0 60378 28800.00000 0 -3279983.359 -16369729.407 -19303369.195 10 0 60378 29700.00000 0 -2559854.489 -18512270.490 -17378281.510 10 0 60378 30600.00000 0 -2069489.818 -20454477.820 -15116120.204 10 0 60378 31500.00000 0 -1786135.430 -22138169.948 -12560681.932 10 0 60378 32400.00000 0 -1676758.136 -23512713.557 -9761474.313 10 0 60378 33300.00000 0 -1699667.259 -24537040.744 -6772764.476 10 0 60378 34200.00000 0 -1806508.114 -25181286.424 -3652532.664 10 0 60378 35100.00000 0 -1944543.053 -25427976.802 -461350.624 10 0 60378 36000.00000 0 -2059123.540 -25272718.385 2738793.687 10 0 60378 36900.00000 0 -2096248.284 -24724357.786 5885702.110 10 0 60378 37800.00000 0 -2005098.478 -23804604.772 8918179.178 10 0 60378 38700.00000 0 -1740441.828 -22547133.688 11777227.780 10 0 60378 39600.00000 0 -1264802.394 -20996200.418 14407203.503 10 0 60378 40500.00000 0 -550302.968 -19204832.676 16756904.534 10 0 60378 41400.00000 0 419899.457 -17232669.448 18780575.156 10 0 60378 42300.00000 0 1650647.416 -15143540.320 20438802.725 10 0 60378 43200.00000 0 3134328.262 -13002886.394 21699290.226 10 0 60378 44100.00000 0 4850951.749 -10875131.010 22537489.098 10 0 60378 45000.00000 0 6768758.034 -8821110.630 22937079.835 10 0 60378 45900.00000 0 8845331.797 -6895673.407 22890290.998 10 0 60378 46800.00000 0 11029176.761 -5145545.774 22398050.436 10 0 60378 47700.00000 0 13261685.389 -3607555.961 21469965.877 10 0 60378 48600.00000 0 15479421.817 -2307288.107 20124135.322 10 0 60378 49500.00000 0 17616622.830 -1258222.374 18386791.067 10 0 60378 50400.00000 0 19607812.336 -461395.926 16291784.402 10 0 60378 51300.00000 0 21390419.978 94402.454 13879921.201 10 0 60378 52200.00000 0 22907294.249 431913.901 11198161.583 10 0 60378 53100.00000 0 24109004.844 584199.100 8298699.609 10 0 60378 54000.00000 0 24955837.873 592988.720 5237941.366 10 0 60378 54900.00000 0 25419400.533 506665.959 2075401.892 10 0 60378 55800.00000 0 25483768.367 377967.892 -1127456.956 10 0 60378 56700.00000 0 25146127.593 261504.100 -4308424.508 10 0 60378 57600.00000 0 24416886.349 211198.551 -7405751.318 10 0 60378 58500.00000 0 23319251.066 277763.663 -10359347.343 10 0 60378 59400.00000 0 21888286.639 506313.788 -13111944.853 10 0 60378 60300.00000 0 20169500.575 934219.176 -15610203.653 10 0 60378 61200.00000 0 18217010.987 1589291.034 -17805737.582 10 0 60378 62100.00000 0 16091375.367 2488374.145 -19656043.128 10 0 60378 63000.00000 0 13857170.741 3636406.339 -21125313.102 10 0 60378 63900.00000 0 11580425.757 5025984.464 -22185120.662 10 0 60378 64800.00000 0 9326010.896 6637455.512 -22814961.524 10 0 60378 65700.00000 0 7155094.331 8439529.814 -23002644.859 10 0 60378 66600.00000 0 5122767.991 10390391.677 -22744526.026 10 0 60378 67500.00000 0 3275941.115 12439262.433 -22045577.087 10 0 60378 68400.00000 0 1651587.482 14528352.191 -20919293.776 10 0 60378 69300.00000 0 275417.971 16595120.524 -19387440.424 10 0 60378 70200.00000 0 -838967.370 18574753.395 -17479637.045 10 0 60378 71100.00000 0 -1690413.259 20402754.457 -15232795.683 10 0 60378 72000.00000 0 -2290015.764 22017543.643 -12690415.762 10 0 60378 72900.00000 0 -2660410.052 23362955.284 -9901751.007 10 0 60378 73800.00000 0 -2834569.369 24390531.594 -6920862.961 10 0 60378 74700.00000 0 -2854165.906 25061515.378 -3805578.656 10 0 60378 75600.00000 0 -2767562.701 25348457.965 -616372.089 10 0 60378 76500.00000 0 -2627521.532 25236374.089 2584809.048 10 0 60378 77400.00000 0 -2488724.021 24723394.243 5735748.465 10 0 60378 78300.00000 0 -2405211.397 23820886.001 8775174.394 10 0 60378 79200.00000 0 -2427852.087 22553038.194 11643956.604 10 0 60378 80100.00000 0 -2601945.380 20955924.472 14286263.243 10 0 60378 81000.00000 0 -2965063.825 19076084.886 16650654.285 10 0 60378 81900.00000 0 -3545226.994 16968684.501 18691089.601 10 0 60378 82800.00000 0 -4359485.272 14695326.021 20367831.415 10 0 60378 83700.00000 0 -5412974.899 12321607.930 21648223.162 10 0 60378 84600.00000 0 -6698485.557 9914530.410 22507329.296 10 0 60378 85500.00000 0 -8196560.009 7539857.552 22928423.428 10 0 60379 0.00000 0 -9876122.601 5259546.319 22903315.300 10 0 60379 900.00000 0 -11695612.124 3129348.302 22432510.164 10 0 60379 1800.00000 0 -13604569.961 1196687.168 21525197.668 10 0 60379 2700.00000 0 -15545620.404 -501104.188 20199070.521 10 0 60379 3600.00000 0 -17456758.262 -1938110.883 18479976.483 10 0 60379 4500.00000 0 -19273848.820 -3100674.514 16401410.674 10 0 60379 5400.00000 0 -20933235.195 -3987708.936 14003858.218 10 0 60379 6300.00000 0 -22374343.632 -4610481.727 11334000.258 10 0 60379 7200.00000 0 -23542177.288 -4991872.277 8443799.163 10 0 60379 8100.00000 0 -24389593.730 -5165139.600 5389481.173 10 0 60379 9000.00000 0 -24879270.507 -5172253.598 2230436.814 10 0 60379 9900.00000 0 -24985276.376 -5061861.934 -971938.882 10 0 60379 10800.00000 0 -24694182.482 -4886979.904 -4155443.184 10 0 60379 11700.00000 0 -24005667.277 -4702502.232 -7258275.716 10 0 60379 12600.00000 0 -22932590.384 -4562642.915 -10220237.810 10 0 60379 13500.00000 0 -21500532.908 -4518411.967 -12983897.711 10 0 60379 14400.00000 0 -19746824.095 -4615236.019 -15495699.158 10 0 60379 15300.00000 0 -17719095.528 -4890823.239 -17706992.208 10 0 60379 16200.00000 0 -15473423.550 -5373362.547 -19574967.055 10 0 60379 17100.00000 0 -13072137.379 -6080132.776 -21063473.668 10 0 60379 18000.00000 0 -10581383.879 -7016580.199 -22143712.435 10 0 60379 18900.00000 0 -8068549.613 -8175903.224 -22794783.539 10 0 60379 19800.00000 0 -5599646.255 -9539162.049 -23004085.410 10 0 60379 20700.00000 0 -3236766.734 -11075909.359 -22767555.300 10 0 60379 21600.00000 0 -1035716.263 -12745316.660 -22089747.766 10 0 60379 22500.00000 0 956084.859 -14497750.469 -20983749.609 10 0 60379 23400.00000 0 2701340.915 -16276733.912 -19470932.587 10 0 60379 24300.00000 0 4174191.847 -18021213.287 -17580548.040 10 0 60379 25200.00000 0 5361042.184 -19668036.320 -15349170.291 10 0 60379 26100.00000 0 6260874.004 -21154539.621 -12819998.540 10 0 60379 27000.00000 0 6885031.432 -22421137.985 -10042029.599 10 0 60379 27900.00000 0 7256486.060 -23413807.513 -7069116.446 10 0 60379 28800.00000 0 7408614.335 -24086358.433 -3958930.020 10 0 60379 29700.00000 0 7383538.552 -24402401.820 -771843.816 10 0 60379 30600.00000 0 7230101.571 -24336926.799 2430237.324 10 0 60379 31500.00000 0 7001561.076 -23877420.844 5585081.359 10 0 60379 32400.00000 0 6753101.313 -23024484.853 8631342.378 10 0 60379 33300.00000 0 6539268.216 -21791915.796 11509758.950 10 0 60379 34200.00000 0 6411437.337 -20206252.265 14164313.432 10 0 60379 35100.00000 0 6415422.761 -18305800.929 16543328.945 10 0 60379 36000.00000 0 6589329.310 -16139183.871 18600481.991 10 0 60379 36900.00000 0 6961740.080 -13763467.103 20295710.370 10 0 60379 37800.00000 0 7550317.122 -11241948.188 21595998.318 10 0 60379 38700.00000 0 8360875.520 -8641695.291 22476023.288 10 0 60379 39600.00000 0 9386971.032 -6030940.343 22918651.642 10 0 60379 40500.00000 0 10610019.643 -3476435.078 22915273.561 10 0 60379 41400.00000 0 11999944.844 -1040880.059 22465970.708 10 0 60379 42300.00000 0 13516326.061 1219466.289 21579513.434 10 0 60379 43200.00000 0 15110000.426 3256899.388 20273187.671 10 0 60379 44100.00000 0 16725050.891 5034013.564 18572454.984 10 0 60379 45000.00000 0 18301097.217 6525008.492 16510452.501 10 0 60379 45900.00000 0 19775793.544 7716503.676 14127342.626 10 0 60379 46800.00000 0 21087427.398 8607828.380 11469525.424 10 0 60379 47700.00000 0 22177510.628 9210776.512 8588729.331 10 0 60379 48600.00000 0 22993253.055 9548838.672 5540998.366 10 0 60379 49500.00000 0 23489814.615 9655945.536 2385596.058 10 0 60379 50400.00000 0 23632241.096 9574777.410 -816151.938 10 0 60379 51300.00000 0 23397002.137 9354712.997 -4002053.403 10 0 60379 52200.00000 0 22773066.937 9049505.440 -7110259.543 10 0 60379 53100.00000 0 21762472.804 8714785.005 -10080465.427 10 0 60379 54000.00000 0 20380363.032 8405494.721 -12855077.430 10 0 60379 54900.00000 0 18654492.899 8173367.729 -15380325.105 10 0 60379 55800.00000 0 16624224.737 8064552.943 -17607296.321 10 0 60379 56700.00000 0 14339054.238 8117489.022 -19492876.265 10 0 60379 57600.00000 0 11856729.330 8361115.885 -21000573.078 10 0 60379 58500.00000 0 9241039.614 8813498.695 -22101215.128 10 0 60379 59400.00000 0 6559367.550 9480921.866 -22773507.556 10 0 60379 60300.00000 0 3880102.104 10357491.064 -23004438.289 10 0 60379 61200.00000 0 1270020.934 11425260.141 -22789526.417 10 0 60379 62100.00000 0 -1208251.739 12654878.220 -22132908.619 10 0 60379 63000.00000 0 -3498607.669 14006730.743 -21047262.024 10 0 60379 63900.00000 0 -5553540.906 15432527.873 -19553564.719 10 0 60379 64800.00000 0 -7335872.659 16877275.030 -17680697.890 10 0 60379 65700.00000 0 -8820044.058 18281544.434 -15464896.333 10 0 60379 66600.00000 0 -9992923.887 19583953.666 -12949056.911 10 0 60379 67500.00000 0 -10854098.215 20723748.288 -10181917.187 10 0 60379 68400.00000 0 -11415630.235 21643380.776 -7217119.067 10 0 60379 69300.00000 0 -11701300.663 22290977.567 -4112174.777 10 0 60379 70200.00000 0 -11745360.775 22622590.254 -927354.646 10 0 60379 71100.00000 0 -11590850.768 22604135.505 2275481.996 10 0 60379 72000.00000 0 -11287554.567 22212940.983 5434089.985 10 0 60379 72900.00000 0 -10889677.835 21438830.889 8487051.812 10 0 60379 73800.00000 0 -10453347.815 20284703.945 11374977.284 10 0 60379 74700.00000 0 -10034041.461 18766578.058 14041665.267 10 0 60379 75600.00000 0 -9684051.445 16913098.384 16435204.173 10 0 60379 76500.00000 0 -9450098.185 14764528.213 18508989.085 10 0 60379 77400.00000 0 -9371189.822 12371264.006 20222635.125 10 0 60379 78300.00000 0 -9476821.600 9791936.026 21542768.824 10 0 60379 79200.00000 0 -9785591.588 7091173.402 22443681.866 10 0 60379 80100.00000 0 -10304292.053 4337126.660 22907834.269 10 0 60379 81000.00000 0 -11027515.504 1598850.834 22926197.227 10 0 60379 81900.00000 0 -11937792.620 -1056341.993 22498428.948 10 0 60379 82800.00000 0 -13006256.703 -3565450.595 21632880.158 10 0 60379 83700.00000 0 -14193806.966 -5872166.328 20346429.228 10 0 60379 84600.00000 0 -15452721.833 -7928969.974 18664150.243 10 0 60379 85500.00000 0 -16728654.305 -9698856.956 16618820.571 10 0 60380 0.00000 0 -17962925.147 -11156619.823 14250277.902 10 0 60380 900.00000 0 -19095017.693 -12289636.404 11604638.171 10 0 60380 1800.00000 0 -20065167.222 -13098130.258 8733393.126 10 0 60380 2700.00000 0 -20816937.612 -13594896.824 5692401.372 10 0 60380 3600.00000 0 -21299674.701 -13804506.619 2540796.079 10 0 60380 4500.00000 0 -21470733.312 -13762021.714 -660169.918 10 0 60380 5400.00000 0 -21297383.851 -13511281.242 -3848318.375 10 0 60380 6300.00000 0 -20758318.107 -13102829.852 -6961755.501 10 0 60380 7200.00000 0 -19844690.944 -12591577.909 -9940073.433 10 0 60380 8100.00000 0 -18560654.250 -12034293.187 -12725519.837 10 0 60380 9000.00000 0 -16923360.878 -11487030.538 -15264113.018 10 0 60380 9900.00000 0 -14962438.543 -11002608.203 -17506681.253 10 0 60380 10800.00000 0 -12718955.650 -10628237.022 -19409806.903 10 0 60380 11700.00000 0 -10243922.020 -10403401.997 -20936657.920 10 0 60380 12600.00000 0 -7596386.507 -10358084.795 -22057691.690 10 0 60380 13500.00000 0 -4841209.880 -10511401.327 -22751218.687 10 0 60380 14400.00000 0 -2046604.421 -10870711.134 -23003816.023 10 0 60380 15300.00000 0 718458.957 -11431235.725 -22810583.682 10 0 60380 16200.00000 0 3386870.020 -12176201.916 -22175238.931 10 0 60380 17100.00000 0 5895917.928 -13077504.581 -21110047.204 10 0 60380 18000.00000 0 8189645.572 -14096861.755 -19635590.481 10 0 60380 18900.00000 0 10220923.217 -15187414.647 -17780377.030 10 0 60380 19800.00000 0 11953156.523 -16295706.586 -15580299.094 10 0 60380 20700.00000 0 13361558.765 -17363958.945 -13077947.975 10 0 60380 21600.00000 0 14433934.901 -18332549.447 -10321798.610 10 0 60380 22500.00000 0 15170945.218 -19142589.361 -7365278.369 10 0 60380 23400.00000 0 15585837.697 -19738491.493 -4265737.285 10 0 60380 24300.00000 0 15703660.532 -20070420.690 -1083339.091 10 0 60380 25200.00000 0 15559987.971 -20096523.110 2120105.680 10 0 60380 26100.00000 0 15199213.280 -19784839.277 5282341.792 10 0 60380 27000.00000 0 14672481.061 -19114819.028 8341882.875 10 0 60380 27900.00000 0 14035346.597 -18078372.978 11239212.336 10 0 60380 28800.00000 0 13345261.618 -16680414.577 13917947.476 10 0 60380 29700.00000 0 12658993.410 -14938868.355 16325943.461 10 0 60380 30600.00000 0 12030087.095 -12884142.465 18416314.972 10 0 60380 31500.00000 0 11506479.091 -10558086.330 20148354.986 10 0 60380 32400.00000 0 11128363.353 -8012475.980 21488332.452 10 0 60380 33300.00000 0 10926401.159 -5307089.531 22410152.970 10 0 60380 34200.00000 0 10920350.605 -2507452.606 22895869.541 10 0 60380 35100.00000 0 11118174.075 317652.702 22936033.349 10 0 60380 36000.00000 0 11515661.624 3098811.860 22529877.837 10 0 60380 36900.00000 0 12096586.341 5768625.844 21685332.536 10 0 60380 37800.00000 0 12833385.153 8264273.054 20418866.480 10 0 60380 38700.00000 0 13688336.298 10529878.899 18755164.319 10 0 60380 39600.00000 0 14615183.588 12518594.793 16726641.556 10 0 60380 40500.00000 0 15561138.646 14194300.650 14372808.491 10 0 60380 41400.00000 0 16469176.251 15532860.760 11739495.423 10 0 60380 42300.00000 0 17280525.454 16522881.753 8877954.563 10 0 60380 43200.00000 0 17937250.810 17165942.415 5843856.541 10 0 60380 44100.00000 0 18384814.273 17476287.367 2696201.544 10 0 60380 45000.00000 0 18574509.169 17479999.275 -503833.068 10 0 60380 45900.00000 0 18465663.182 17213686.189 -3694085.643 10 0 60380 46800.00000 0 18027517.178 16722741.019 -6812619.898 10 0 60380 47700.00000 0 17240700.589 16059247.953 -9798927.361 10 0 60380 48600.00000 0 16098241.174 15279625.280 -12595099.068 10 0 60380 49500.00000 0 14606066.733 14442104.753 -15146943.852 10 0 60380 50400.00000 0 12782977.666 13604154.119 -17405031.875 10 0 60380 51300.00000 0 10660091.408 12819951.308 -19325643.834 10 0 60380 52200.00000 0 8279781.588 12138016.205 -20871608.378 10 0 60380 53100.00000 0 5694155.669 11599098.909 -22013012.523 10 0 60380 54000.00000 0 2963133.585 11234412.388 -22727772.431 10 0 60380 54900.00000 0 152206.141 11064282.925 -23002054.498 10 0 60380 55800.00000 0 -2670035.068 11097274.255 -22830539.397 10 0 60380 56700.00000 0 -5434495.286 11329821.709 -22216524.448 10 0 60380 57600.00000 0 -8074195.672 11746391.566 -21171862.478 10 0 60380 58500.00000 0 -10526806.768 12320159.143 -19716738.056 10 0 60380 59400.00000 0 -12736992.709 13014177.715 -17879284.849 10 0 60380 60300.00000 0 -14658470.059 13782989.975 -15695050.531 10 0 60380 61200.00000 0 -16255696.624 14574615.201 -13206318.561 10 0 60380 62100.00000 0 -17505120.554 15332829.469 -10461298.798 10 0 60380 63000.00000 0 -18395938.048 15999643.617 -7513201.525 10 0 60380 63900.00000 0 -18930328.109 16517874.994 -4419212.015 10 0 60380 64800.00000 0 -19123154.576 16833704.592 -1239384.884 10 0 60380 65700.00000 0 -19001147.901 16899111.286 1964520.595 10 0 60380 66600.00000 0 -18601601.068 16674079.627 5130241.484 10 0 60380 67500.00000 0 -17970634.640 16128486.826 8196224.839 10 0 60380 68400.00000 0 -17161104.299 15243587.808 11102829.848 10 0 60380 69300.00000 0 -16230239.509 14013034.059 13793494.334 10 0 60380 70200.00000 0 -15237113.477 12443381.593 16215842.191 10 0 60380 71100.00000 0 -14240051.770 10554064.938 18322709.502 10 0 60380 72000.00000 0 -13294089.635 8376836.657 20073068.749 10 0 60380 72900.00000 0 -12448585.875 5954694.497 21432832.703 10 0 60380 73800.00000 0 -11745094.483 3340339.896 22375522.063 10 0 60380 74700.00000 0 -11215584.155 594231.378 22882783.693 10 0 60380 75600.00000 0 -10881080.964 -2217686.606 22944749.338 10 0 60380 76500.00000 0 -10750791.467 -5026485.228 22560227.903 10 0 60380 77400.00000 0 -10821743.092 -7762879.323 21736727.586 10 0 60380 78300.00000 0 -11078956.679 -10359872.793 20490307.548 10 0 60380 79200.00000 0 -11496143.537 -12755311.495 18845262.067 10 0 60380 80100.00000 0 -12036897.083 -14894237.602 16833643.440 10 0 60380 81000.00000 0 -12656328.193 -16730947.790 14494633.054 10 0 60380 81900.00000 0 -13303074.586 -18230670.036 11873773.057 10 0 60380 82800.00000 0 -13921598.645 -19370789.888 9022073.903 10 0 60380 83700.00000 0 -14454675.908 -20141576.027 5995015.571 10 0 60380 84600.00000 0 -14845968.354 -20546376.136 2851462.392 10 0 60380 85500.00000 0 -15042573.115 -20601276.374 -347486.778 10 0 60381 0.00000 0 -14997438.402 -20334240.489 -3539689.735 10 0 60381 900.00000 0 -14671544.132 -19783766.195 -6663171.486 10 0 60381 1800.00000 0 -14035755.050 -18997117.347 -9657325.893 10 0 60381 2700.00000 0 -13072267.985 -18028207.092 -12464090.557 10 0 60381 3600.00000 0 -11775592.195 -16935222.403 -15029067.928 10 0 60381 4500.00000 0 -10153021.485 -15778090.377 -17302572.938 10 0 60381 5400.00000 0 -8224578.104 -14615893.022 -19240587.197 10 0 60381 6300.00000 0 -6022430.373 -13504338.832 -20805602.210 10 0 60381 7200.00000 0 -3589807.803 -12493396.709 -21967336.274 10 0 60381 8100.00000 0 -979458.070 -11625190.553 -22703312.313 10 0 60381 9000.00000 0 1748291.089 -10932241.785 -22999286.471 10 0 60381 9900.00000 0 4527785.837 -10436132.406 -22849519.968 10 0 60381 10800.00000 0 7290524.072 -10146643.746 -22256889.476 10 0 60381 11700.00000 0 9967755.975 -10061406.343 -21232833.998 10 0 60381 12600.00000 0 12493100.982 -10166075.335 -19797139.019 10 0 60381 13500.00000 0 14805074.095 -10435024.028 -17977561.519 10 0 60381 14400.00000 0 16849417.895 -10832526.847 -15809302.127 10 0 60381 15300.00000 0 18581144.265 -11314382.532 -13334333.633 10 0 60381 16200.00000 0 19966201.472 -11829909.897 -10600597.643 10 0 60381 17100.00000 0 20982697.460 -12324232.721 -7661083.910 10 0 60381 18000.00000 0 21621628.282 -12740757.845 -4572809.273 10 0 60381 18900.00000 0 21887081.116 -13023742.026 -1395715.433 10 0 60381 19800.00000 0 21795903.131 -13120838.928 1808493.374 10 0 60381 20700.00000 0 21376849.905 -12985517.969 4977550.168 10 0 60381 21600.00000 0 20669249.075 -12579251.818 8049838.809 10 0 60381 22500.00000 0 19721235.456 -11873378.756 10965597.276 10 0 60381 23400.00000 0 18587632.152 -10850559.664 13668086.457 10 0 60381 24300.00000 0 17327567.255 -9505766.404 16104701.006 10 0 60381 25200.00000 0 16001926.984 -7846758.151 18227999.922 10 0 60381 26100.00000 0 14670753.135 -5894023.882 19996636.193 10 0 60381 27000.00000 0 13390694.923 -3680191.810 21376166.941 10 0 60381 27900.00000 0 12212622.971 -1248929.079 22339728.032 10 0 60381 28800.00000 0 11179506.174 1346623.393 22868559.853 10 0 60381 29700.00000 0 10324640.885 4045816.461 22952373.992 10 0 60381 30600.00000 0 9670306.846 6782777.391 22589553.739 10 0 60381 31500.00000 0 9226906.123 9488918.786 21787184.560 10 0 60381 32400.00000 0 8992620.771 12095567.613 20560914.043 10 0 60381 33300.00000 0 8953603.004 14536605.054 18934644.134 10 0 60381 34200.00000 0 9084689.010 16751007.384 16940061.728 10 0 60381 35100.00000 0 9350605.428 18685182.223 14616016.900 10 0 60381 36000.00000 0 9707616.599 20295003.060 12007761.060 10 0 60381 36900.00000 0 10105542.015 21547457.651 9166060.168 10 0 60381 37800.00000 0 10490057.737 22421842.095 6146200.691 10 0 60381 38700.00000 0 10805183.534 22910451.684 3006908.154 10 0 60381 39600.00000 0 10995849.722 23018740.735 -190800.054 10 0 60381 40500.00000 0 11010434.410 22764946.147 -3384804.661 10 0 60381 41400.00000 0 10803163.333 22179191.973 -6513093.591 10 0 60381 42300.00000 0 10336270.429 21302114.090 -9514966.166 10 0 60381 43200.00000 0 9581827.702 20183064.100 -12332208.823 10 0 60381 44100.00000 0 8523167.016 18877968.985 -14910219.579 10 0 60381 45000.00000 0 7155833.831 17446937.147 -17199059.731 10 0 60381 45900.00000 0 5488032.594 15951711.617 -19154413.072 10 0 60381 46800.00000 0 3540544.744 14453077.109 -20738434.918 10 0 60381 47700.00000 0 1346122.219 13008329.063 -21920475.509 10 0 60381 48600.00000 0 -1051619.032 11668909.765 -22677664.914 10 0 60381 49500.00000 0 -3599760.501 10478309.351 -22995349.117 10 0 60381 50400.00000 0 -6238033.911 9470318.287 -22867369.660 10 0 60381 51300.00000 0 -8901085.684 8667703.218 -22296181.977 10 0 60381 52200.00000 0 -11520960.745 8081360.549 -21292810.260 10 0 60381 53100.00000 0 -14029704.147 7709982.415 -19876639.518 10 0 60381 54000.00000 0 -16361974.053 7540248.567 -18075048.246 10 0 60381 54900.00000 0 -18457558.848 7547535.992 -15922887.897 10 0 60381 55800.00000 0 -20263694.691 7697116.589 -13461818.189 10 0 60381 56700.00000 0 -21737087.711 7945792.876 -10739509.918 10 0 60381 57600.00000 0 -22845556.815 8243903.237 -7808729.650 10 0 60381 58500.00000 0 -23569228.478 8537612.486 -4726323.151 10 0 60381 59400.00000 0 -23901233.289 8771391.210 -1552116.618 10 0 60381 60300.00000 0 -23847874.669 8890578.993 1652243.279 10 0 60381 61200.00000 0 -23428262.188 8843922.655 4824487.941 10 0 60381 62100.00000 0 -22673424.546 8585981.348 7902940.380 10 0 60381 63000.00000 0 -21624939.184 8079295.561 10827719.613 10 0 60381 63900.00000 0 -20333136.107 7296226.937 13541911.741 10 0 60381 64800.00000 0 -18854951.575 6220389.488 15992684.177 10 0 60381 65700.00000 0 -17251522.192 4847610.047 18132320.671 10 0 60381 66600.00000 0 -15585620.991 3186375.714 19919156.314 10 0 60381 67500.00000 0 -13919043.679 1257747.746 21318393.909 10 0 60381 68400.00000 0 -12310055.269 -905256.105 22302785.518 10 0 60381 69300.00000 0 -10811004.598 -3258786.242 22853165.754 10 0 60381 70200.00000 0 -9466206.976 -5749746.970 22958826.416 10 0 60381 71100.00000 0 -8310183.727 -8317777.961 22617725.220 10 0 60381 72000.00000 0 -7366332.146 -10897549.318 21836524.609 10 0 60381 72900.00000 0 -6646081.130 -13421274.960 20630459.993 10 0 60381 73800.00000 0 -6148567.105 -15821339.753 19023040.057 10 0 60381 74700.00000 0 -5860842.865 -18032930.965 17045585.051 10 0 60381 75600.00000 0 -5758609.351 -19996564.376 14736612.196 10 0 60381 76500.00000 0 -5807438.256 -21660399.756 12141080.339 10 0 60381 77400.00000 0 -5964432.585 -22982249.198 9309508.874 10 0 60381 78300.00000 0 -6180253.735 -23931194.745 6296988.485 10 0 60381 79200.00000 0 -6401428.202 -24488748.257 3162103.444 10 0 60381 80100.00000 0 -6572835.240 -24649505.740 -34212.900 10 0 60381 81000.00000 0 -6640269.295 -24421269.795 -3229866.599 10 0 60381 81900.00000 0 -6552968.024 -23824636.245 -6362811.836 10 0 60381 82800.00000 0 -6265998.455 -22892063.581 -9372255.943 10 0 60381 83700.00000 0 -5742400.038 -21666465.526 -12199837.062 10 0 60381 84600.00000 0 -4954993.941 -20199386.808 -14790751.613 10 0 60381 85500.00000 0 -3887782.140 -18548839.490 -17094810.020 99